Regional Weather Roundup
Issued by NWS Albany, NY

Home | Current Version | Previous Version | Graphics & Text | Print | Product List | Glossary Off
Versions: 1 2 3 4 5 6 7 8 9 10 11 12 13 14 15 16 17 18 19 20 21 22 23 24 25 26 27 28 29 30 31 32 33 34 35 36 37 38 39 40 41 42 43 44 45 46 47 48 49 50

488
ASUS41 KALY 201110
RWRALY

NEW YORK STATE HOURLY WEATHER ROUNDUP
NATIONAL WEATHER SERVICE ALBANY NY
700 AM EDT THU JUL 20 2017

NOTE: "FAIR" INDICATES FEW OR NO CLOUDS BELOW 12,000 FEET WITH NO
SIGNIFICANT WEATHER AND/OR NO OBSTRUCTIONS TO VISIBILITY.

NYZ032-033-038>043-046>054-057>066-NYZ062>081-082-084-201200-
EAST


CITY           SKY/WX    TMP DP  RH WIND       PRES   REMARKS
ALBANY         PTSUNNY   71  66  84 CALM      29.99R
GLENS FALLS    MOSUNNY   68  66  93 CALM      29.97S FOG
POUGHKEEPSIE   PTSUNNY   69  64  84 CALM      29.99R
NEWBURGH       MOSUNNY   70  68  94 CALM      30.01R
MONTGOMERY     CLOUDY    68  65  90 CALM      30.00R
WHITE PLAINS   MOSUNNY   74  64  71 NW5       29.99R
ISLIP          MOSUNNY   78  72  81 CALM      29.97R
NEW YORK CITY  PTSUNNY   79  73  82 NE3       29.96R
CENTRAL PARK   MOSUNNY   79  70  74 CALM      30.00R
$$

NYZ005>009-017-018-044>046-055-056-201200-
CENTRAL


CITY           SKY/WX    TMP DP  RH WIND       PRES   REMARKS
FULTON         PTSUNNY   69  67  93 S3        29.98S
SYRACUSE       PTSUNNY   71  67  87 SW7       29.98S
ROME           MOSUNNY   68  67  96 SE3       29.99S FOG
ELMIRA         PTSUNNY   67  66  97 SW3       30.02S FOG
BINGHAMTON     MOSUNNY   67  65  93 W5        30.05R
$$

NYZ026>034-041>043-087-201200-
NORTH


CITY           SKY/WX    TMP DP  RH WIND       PRES   REMARKS
WATERTOWN      MOSUNNY   68  67  96 S6        29.95F FOG
FORT DRUM      NOT AVBL
OGDENSBURG     FAIR      66  65  97 CALM      29.93F FOG
MASSENA        PTSUNNY   67  66  97 CALM      29.94R
SARANAC LAKE   FOG       56  56 100 CALM      29.99S VSB 1/4
PLATTSBURGH    MOSUNNY   70  63  78 NW3       29.93S
$$

NYZ001>004-010>016-019>021-085-201200-
WEST


CITY           SKY/WX    TMP DP  RH WIND       PRES   REMARKS
NIAGARA FALLS  MOSUNNY   66  61  84 CALM      30.00S
BUFFALO        PTSUNNY   67  65  93 SW5       30.00S
DUNKIRK        PTCLDY    67  65  93 S8        30.00F
JAMESTOWN      MOCLDY    64  59  82 CALM      30.07S
WELLSVILLE     CLOUDY    67  61  81 W3        30.09F
ROCHESTER      CLOUDY    66  65  96 SW5       29.99F FOG
PENN YAN       PTSUNNY   69  63  81 SW3       30.02S
$$

             KEY
       WCI = WIND CHILL INDEX
       VSB = VISIBILITY
       HX  = HEAT INDEX
$$




USA.gov is the U.S. government's official web portal to all federal, state and local government web resources and services.